AF139 LFPG-LIRF

Flight info

Callsign AF139
Flight time 1h 41m
Altitude 39000
Route OKASI DCT OKEKO DCT MOU DCT MADIV DCT MOKIP DCT TUFTA DCT KOGAS DCT MEDAM DCT NITAM DCT MOGBO DCT ELB/N0483F400 DCT ELKAP
Aircraft B789/H-SDE1E2E3FGHIJ2J3J4J5M1RWXY/LB1D1

Departure

Time 2026-05-06 09:32
Airport Charles de Gaulle International Airport (LFPG)

Arrival

Time 2026-05-06 11:14
Airport Rome–Fiumicino Leonardo da Vinci International Airport (LIRF)
Time Latitude Longitude Altitude Speed Heading
2026-05-06 09:18 49.00172 2.55843 359 ft 0 kts 61°
2026-05-06 09:22 49.00171 2.55840 366 ft 2 kts 61°
2026-05-06 09:22 49.00146 2.55779 367 ft 8 kts 64°
2026-05-06 09:22 49.00141 2.55772 359 ft 6 kts 95°
2026-05-06 09:22 49.00100 2.55809 364 ft 7 kts 199°
2026-05-06 09:23 49.00069 2.55696 363 ft 22 kts 272°
2026-05-06 09:23 49.00185 2.55578 361 ft 28 kts 345°
2026-05-06 09:23 49.00389 2.55496 364 ft 29 kts 345°
2026-05-06 09:23 49.00579 2.55415 364 ft 27 kts 344°
2026-05-06 09:24 49.00750 2.55343 366 ft 25 kts 345°
2026-05-06 09:24 49.00910 2.55276 364 ft 23 kts 342°
2026-05-06 09:24 49.01058 2.55203 364 ft 22 kts 342°
2026-05-06 09:24 49.01196 2.55136 362 ft 21 kts 342°
2026-05-06 09:25 49.01330 2.55076 360 ft 19 kts 346°
2026-05-06 09:25 49.01454 2.55030 367 ft 18 kts 346°
2026-05-06 09:25 49.01575 2.55000 360 ft 21 kts 359°
2026-05-06 09:25 49.01816 2.54996 360 ft 40 kts 359°
2026-05-06 09:26 49.02007 2.54838 367 ft 28 kts 302°
2026-05-06 09:26 49.02016 2.54614 366 ft 22 kts 266°
2026-05-06 09:26 49.01996 2.54265 364 ft 34 kts 258°
2026-05-06 09:26 49.01891 2.53994 366 ft 28 kts 262°
2026-05-06 09:27 49.01874 2.53694 367 ft 29 kts 265°
2026-05-06 09:27 49.01859 2.53398 363 ft 27 kts 265°
2026-05-06 09:27 49.01846 2.53113 363 ft 26 kts 266°
2026-05-06 09:27 49.01829 2.52774 366 ft 43 kts 266°
2026-05-06 09:28 49.01849 2.52364 362 ft 35 kts 304°
2026-05-06 09:28 49.01880 2.52078 362 ft 24 kts 264°
2026-05-06 09:28 49.01865 2.51825 365 ft 23 kts 265°
2026-05-06 09:28 49.01855 2.51650 360 ft 15 kts 264°
2026-05-06 09:29 49.01845 2.51488 366 ft 15 kts 264°
2026-05-06 09:29 49.01844 2.51334 363 ft 14 kts 288°
2026-05-06 09:29 49.01906 2.51249 367 ft 11 kts 348°
2026-05-06 09:29 49.01932 2.51248 365 ft 0 kts
2026-05-06 09:30 49.01933 2.51248 365 ft 0 kts
2026-05-06 09:30 49.01934 2.51248 365 ft 0 kts
2026-05-06 09:30 49.01938 2.51249 365 ft 1 kts
2026-05-06 09:30 49.01948 2.51251 363 ft 10 kts
2026-05-06 09:31 49.02066 2.51406 367 ft 23 kts 72°
2026-05-06 09:31 49.02080 2.51597 364 ft 6 kts 86°
2026-05-06 09:31 49.02088 2.51764 360 ft 50 kts 85°
2026-05-06 09:31 49.02140 2.52684 362 ft 122 kts 86°
2026-05-06 09:32 49.02215 2.54305 411 ft 176 kts 85°
2026-05-06 09:32 49.02243 2.56244 976 ft 195 kts 84°
2026-05-06 09:32 49.02422 2.58427 1454 ft 215 kts 79°
2026-05-06 09:32 49.02581 2.60736 2201 ft 230 kts 80°
2026-05-06 09:33 49.02717 2.63304 2801 ft 250 kts 82°
2026-05-06 09:33 49.02842 2.65959 3885 ft 253 kts 82°
2026-05-06 09:33 49.02982 2.68652 4781 ft 262 kts 82°
2026-05-06 09:33 49.03132 2.71473 5776 ft 266 kts 83°
2026-05-06 09:34 49.03202 2.74312 6683 ft 270 kts 82°
2026-05-06 09:34 49.03408 2.77124 7540 ft 276 kts 81°
2026-05-06 09:34 49.03600 2.80070 8405 ft 282 kts 84°
2026-05-06 09:34 49.03743 2.83091 9286 ft 289 kts 85°
2026-05-06 09:35 49.03886 2.86182 10126 ft 296 kts 86°
2026-05-06 09:35 49.04051 2.89426 10400 ft 322 kts 85°
2026-05-06 09:35 49.04219 2.93001 10583 ft 350 kts 89°
2026-05-06 09:35 49.03733 2.96705 11011 ft 364 kts 116°
2026-05-06 09:36 49.02277 2.99832 11892 ft 366 kts 137°
2026-05-06 09:36 49.00142 3.01940 12648 ft 369 kts 160°
2026-05-06 09:36 48.97624 3.02718 13424 ft 372 kts 181°
2026-05-06 09:36 48.95037 3.02349 14112 ft 376 kts 191°
2026-05-06 09:37 48.92464 3.01568 14935 ft 377 kts 196°
2026-05-06 09:37 48.90057 3.00024 15643 ft 379 kts 212°
2026-05-06 09:37 48.87874 2.97746 16338 ft 382 kts 217°
2026-05-06 09:37 48.85728 2.95335 17050 ft 385 kts 216°
2026-05-06 09:38 48.83470 2.93086 17769 ft 389 kts 211°
2026-05-06 09:38 48.81113 2.91027 18424 ft 393 kts 210°
2026-05-06 09:38 48.78750 2.88892 19011 ft 398 kts 212°
2026-05-06 09:38 48.76397 2.86631 19554 ft 402 kts 212°
2026-05-06 09:39 48.74019 2.84360 20111 ft 406 kts 212°
2026-05-06 09:39 48.71596 2.82117 20642 ft 411 kts 211°
2026-05-06 09:39 48.69137 2.79848 21184 ft 415 kts 212°
2026-05-06 09:39 48.66674 2.77547 21710 ft 418 kts 212°
2026-05-06 09:40 48.64188 2.75219 22237 ft 422 kts 212°
2026-05-06 09:40 48.61705 2.72911 22720 ft 425 kts 211°
2026-05-06 09:40 48.56617 2.68196 23629 ft 433 kts 211°
2026-05-06 09:41 48.54045 2.65809 24026 ft 435 kts 211°
2026-05-06 09:41 48.51434 2.63446 24418 ft 437 kts 207°
2026-05-06 09:41 48.48585 2.61856 24813 ft 438 kts 191°
2026-05-06 09:41 48.45561 2.61352 25192 ft 439 kts 178°
2026-05-06 09:42 48.42510 2.61546 25550 ft 440 kts 176°
2026-05-06 09:42 48.39451 2.61782 25945 ft 441 kts 176°
2026-05-06 09:42 48.36371 2.62023 26301 ft 443 kts 176°
2026-05-06 09:42 48.33276 2.62243 26655 ft 445 kts 176°
2026-05-06 09:43 48.30178 2.62507 26960 ft 447 kts 172°
2026-05-06 09:43 48.27151 2.63572 27301 ft 447 kts 159°
2026-05-06 09:43 48.24326 2.65515 27596 ft 448 kts 152°
2026-05-06 09:43 48.21538 2.67647 27918 ft 450 kts 152°
2026-05-06 09:44 48.18750 2.69807 28234 ft 452 kts 152°
2026-05-06 09:44 48.15941 2.71970 28549 ft 454 kts 153°
2026-05-06 09:44 48.13120 2.74120 28853 ft 456 kts 153°
2026-05-06 09:44 48.10292 2.76276 29157 ft 458 kts 153°
2026-05-06 09:45 48.07422 2.78372 29455 ft 459 kts 158°
2026-05-06 09:45 48.04472 2.80228 29703 ft 461 kts 157°
2026-05-06 09:45 48.01560 2.82091 29991 ft 463 kts 157°
2026-05-06 09:45 47.98597 2.83987 30218 ft 465 kts 157°
2026-05-06 09:46 47.95613 2.85880 30409 ft 467 kts 157°
2026-05-06 09:46 47.92608 2.87781 30660 ft 468 kts 157°
2026-05-06 09:46 47.89608 2.89683 30900 ft 469 kts 157°
2026-05-06 09:46 47.86600 2.91591 31130 ft 471 kts 157°
2026-05-06 09:47 47.83580 2.93500 31363 ft 472 kts 157°
2026-05-06 09:47 47.80548 2.95412 31599 ft 473 kts 157°
2026-05-06 09:47 47.77516 2.97324 31791 ft 475 kts 157°
2026-05-06 09:47 47.74462 2.99249 32000 ft 476 kts 157°
2026-05-06 09:48 47.71406 3.01172 32209 ft 478 kts 157°
2026-05-06 09:48 47.68344 3.03095 32478 ft 478 kts 157°
2026-05-06 09:48 47.65273 3.05021 32784 ft 478 kts 157°
2026-05-06 09:48 47.62211 3.06940 33066 ft 478 kts 158°
2026-05-06 09:49 47.59143 3.08860 33337 ft 478 kts 158°
2026-05-06 09:49 47.56118 3.10750 33612 ft 478 kts 158°
2026-05-06 09:49 47.53050 3.12665 33869 ft 478 kts 158°
2026-05-06 09:49 47.49985 3.14575 34107 ft 478 kts 158°
2026-05-06 09:50 47.46914 3.16486 34337 ft 478 kts 158°
2026-05-06 09:50 47.43848 3.18392 34583 ft 478 kts 158°
2026-05-06 09:50 47.40787 3.20292 34832 ft 478 kts 158°
2026-05-06 09:50 47.37725 3.22190 35060 ft 478 kts 158°
2026-05-06 09:51 47.34661 3.24088 35293 ft 478 kts 158°
2026-05-06 09:51 47.31598 3.25981 35504 ft 478 kts 158°
2026-05-06 09:51 47.28521 3.27882 35697 ft 478 kts 158°
2026-05-06 09:51 47.25446 3.29778 35926 ft 478 kts 158°
2026-05-06 09:52 47.22370 3.31673 36139 ft 479 kts 158°
2026-05-06 09:52 47.19292 3.33567 36353 ft 479 kts 159°
2026-05-06 09:52 47.16216 3.35458 36562 ft 479 kts 159°
2026-05-06 09:52 47.13168 3.37329 36754 ft 480 kts 159°
2026-05-06 09:53 47.10089 3.39216 36957 ft 480 kts 159°
2026-05-06 09:53 47.06996 3.41109 37142 ft 481 kts 159°
2026-05-06 09:53 47.03908 3.42997 37324 ft 481 kts 159°
2026-05-06 09:53 47.00818 3.44884 37540 ft 481 kts 159°
2026-05-06 09:54 46.97726 3.46770 37735 ft 482 kts 159°
2026-05-06 09:54 46.94630 3.48656 37922 ft 482 kts 159°
2026-05-06 09:54 46.91535 3.50539 38134 ft 482 kts 159°
2026-05-06 09:54 46.88433 3.52423 38315 ft 482 kts 159°
2026-05-06 09:55 46.85334 3.54304 38494 ft 483 kts 159°
2026-05-06 09:55 46.83281 3.55549 38584 ft 483 kts 159°
2026-05-06 09:55 46.80165 3.57436 38723 ft 484 kts 159°
2026-05-06 09:55 46.77120 3.59516 38865 ft 485 kts 150°
2026-05-06 09:56 46.71977 3.65975 38896 ft 495 kts 129°
2026-05-06 09:56 46.69584 3.71641 38892 ft 498 kts 114°
2026-05-06 09:56 46.68756 3.74819 38903 ft 499 kts 107°
2026-05-06 09:57 46.67042 3.84579 38879 ft 500 kts 106°
2026-05-06 09:57 46.65369 3.94458 38881 ft 499 kts 106°
2026-05-06 09:58 46.63671 4.04207 38887 ft 499 kts 106°
2026-05-06 09:58 46.61972 4.14007 38886 ft 500 kts 106°
2026-05-06 09:59 46.60259 4.23791 38885 ft 499 kts 107°
2026-05-06 09:59 46.58540 4.33568 38880 ft 499 kts 107°
2026-05-06 10:00 46.56812 4.43338 38880 ft 499 kts 107°
2026-05-06 10:00 46.55078 4.53092 38875 ft 497 kts 107°
2026-05-06 10:01 46.53349 4.62763 38877 ft 498 kts 107°
2026-05-06 10:01 46.51598 4.72504 38875 ft 499 kts 107°
2026-05-06 10:02 46.49840 4.82234 38879 ft 498 kts 107°
2026-05-06 10:02 46.48074 4.91956 38878 ft 497 kts 108°
2026-05-06 10:03 46.46304 5.01648 38877 ft 497 kts 108°
2026-05-06 10:03 46.44524 5.11348 38888 ft 497 kts 108°
2026-05-06 10:04 46.42737 5.21053 38883 ft 498 kts 108°
2026-05-06 10:04 46.40943 5.30747 38889 ft 497 kts 108°
2026-05-06 10:05 46.38915 5.40305 38937 ft 492 kts 119°
2026-05-06 10:05 46.35094 5.48404 38926 ft 487 kts 134°
2026-05-06 10:06 46.30748 5.55803 38913 ft 488 kts 134°
2026-05-06 10:06 46.26332 5.63261 38917 ft 488 kts 134°
2026-05-06 10:07 46.21920 5.70712 38920 ft 487 kts 134°
2026-05-06 10:07 46.17516 5.78119 38915 ft 486 kts 134°
2026-05-06 10:08 46.13115 5.85505 38911 ft 486 kts 134°
2026-05-06 10:08 46.08708 5.92882 38903 ft 485 kts 134°
2026-05-06 10:09 46.04301 6.00237 38926 ft 486 kts 135°
2026-05-06 10:09 45.99905 6.07556 38940 ft 486 kts 135°
2026-05-06 10:10 45.95481 6.14901 38931 ft 486 kts 135°
2026-05-06 10:10 45.91048 6.22242 38932 ft 486 kts 135°
2026-05-06 10:11 45.86598 6.29592 38929 ft 487 kts 135°
2026-05-06 10:11 45.82153 6.36908 38914 ft 486 kts 137°
2026-05-06 10:12 45.77011 6.42987 38914 ft 480 kts 148°
2026-05-06 10:12 45.71568 6.48532 38916 ft 481 kts 149°
2026-05-06 10:13 45.66154 6.54035 38906 ft 481 kts 149°
2026-05-06 10:13 45.60699 6.59568 38896 ft 481 kts 149°
2026-05-06 10:14 45.55240 6.65091 38897 ft 480 kts 149°
2026-05-06 10:14 45.49808 6.70572 38896 ft 477 kts 149°
2026-05-06 10:15 45.44377 6.76039 38889 ft 479 kts 150°
2026-05-06 10:15 45.38924 6.81515 38876 ft 478 kts 149°
2026-05-06 10:16 45.33501 6.86950 38857 ft 475 kts 150°
2026-05-06 10:16 45.28100 6.92346 38856 ft 475 kts 150°
2026-05-06 10:17 45.23111 6.98586 38875 ft 482 kts 141°
2026-05-06 10:17 45.18292 7.05240 38874 ft 484 kts 141°
2026-05-06 10:18 45.13495 7.11824 38881 ft 482 kts 141°
2026-05-06 10:18 45.09044 7.18931 38896 ft 487 kts 130°
2026-05-06 10:19 45.05136 7.26815 38887 ft 491 kts 130°
2026-05-06 10:19 45.01207 7.34717 38878 ft 490 kts 131°
2026-05-06 10:20 44.97071 7.42328 38895 ft 481 kts 141°
2026-05-06 10:20 44.92327 7.49002 38836 ft 482 kts 141°
2026-05-06 10:21 44.87562 7.55637 38833 ft 481 kts 141°
2026-05-06 10:21 44.82811 7.62275 38819 ft 481 kts 141°
2026-05-06 10:22 44.78039 7.68900 38818 ft 481 kts 141°
2026-05-06 10:22 44.73304 7.75473 38817 ft 481 kts 141°
2026-05-06 10:23 44.68501 7.82117 38817 ft 481 kts 141°
2026-05-06 10:23 44.63734 7.88698 38825 ft 481 kts 141°
2026-05-06 10:24 44.58983 7.95238 38817 ft 481 kts 141°
2026-05-06 10:24 44.54199 8.01810 38814 ft 481 kts 142°
2026-05-06 10:25 44.49410 8.08372 38814 ft 481 kts 142°
2026-05-06 10:25 44.44625 8.14913 38828 ft 482 kts 142°
2026-05-06 10:26 44.39825 8.21457 38826 ft 482 kts 142°
2026-05-06 10:26 44.35019 8.27997 38837 ft 482 kts 142°
2026-05-06 10:27 44.30194 8.34543 38841 ft 482 kts 142°
2026-05-06 10:27 44.25385 8.41055 38846 ft 482 kts 142°
2026-05-06 10:28 44.20560 8.47571 38851 ft 482 kts 142°
2026-05-06 10:28 44.15752 8.54049 38854 ft 481 kts 142°
2026-05-06 10:29 44.10952 8.60500 38859 ft 482 kts 142°
2026-05-06 10:29 44.06117 8.66984 38866 ft 482 kts 142°
2026-05-06 10:30 44.01284 8.73448 38872 ft 482 kts 142°
2026-05-06 10:30 43.96440 8.79911 38875 ft 483 kts 142°
2026-05-06 10:31 43.91580 8.86383 38878 ft 483 kts 142°
2026-05-06 10:31 43.86730 8.92824 38881 ft 483 kts 142°
2026-05-06 10:32 43.81908 8.99213 38885 ft 482 kts 142°
2026-05-06 10:32 43.77048 9.05637 38889 ft 483 kts 142°
2026-05-06 10:33 43.72175 9.12064 38890 ft 483 kts 142°
2026-05-06 10:33 43.67306 9.18470 38901 ft 483 kts 142°
2026-05-06 10:34 43.62435 9.24863 38897 ft 483 kts 142°
2026-05-06 10:34 43.57592 9.31206 38887 ft 483 kts 142°
2026-05-06 10:35 43.52709 9.37584 38901 ft 484 kts 142°
2026-05-06 10:35 43.47818 9.43960 38903 ft 484 kts 142°
2026-05-06 10:36 43.42917 9.50332 38907 ft 485 kts 142°
2026-05-06 10:36 43.38001 9.56710 38914 ft 486 kts 142°
2026-05-06 10:37 43.33074 9.63087 38914 ft 487 kts 142°
2026-05-06 10:37 43.28132 9.69467 38913 ft 488 kts 142°
2026-05-06 10:38 43.23179 9.75848 38919 ft 488 kts 142°
2026-05-06 10:38 43.18225 9.82215 38919 ft 487 kts 142°
2026-05-06 10:39 43.13279 9.88557 38920 ft 486 kts 142°
2026-05-06 10:39 43.08356 9.94853 38932 ft 486 kts 142°
2026-05-06 10:40 43.03414 10.01160 38889 ft 484 kts 142°
2026-05-06 10:40 43.00952 10.04300 38148 ft 485 kts 142°
2026-05-06 10:40 42.99314 10.06381 37725 ft 485 kts 142°
2026-05-06 10:41 42.96852 10.09513 37118 ft 482 kts 142°
2026-05-06 10:41 42.94401 10.12628 36505 ft 480 kts 142°
2026-05-06 10:41 42.91960 10.15725 35881 ft 475 kts 143°
2026-05-06 10:41 42.89577 10.18752 35266 ft 465 kts 143°
2026-05-06 10:42 42.87174 10.21782 34660 ft 475 kts 143°
2026-05-06 10:42 42.84750 10.24841 34057 ft 475 kts 143°
2026-05-06 10:42 42.82334 10.27902 33414 ft 473 kts 143°
2026-05-06 10:42 42.79925 10.30947 32810 ft 470 kts 143°
2026-05-06 10:43 42.77563 10.34013 32244 ft 470 kts 137°
2026-05-06 10:43 42.75571 10.37532 31644 ft 469 kts 126°
2026-05-06 10:43 42.74089 10.41394 31075 ft 464 kts 116°
2026-05-06 10:44 42.72680 10.49971 29912 ft 471 kts 96°
2026-05-06 10:44 42.72495 10.54413 29281 ft 470 kts 96°
2026-05-06 10:44 42.72318 10.58883 28744 ft 463 kts 96°
2026-05-06 10:44 42.71852 10.63053 28597 ft 440 kts 109°
2026-05-06 10:45 42.70841 10.66899 28146 ft 428 kts 121°
2026-05-06 10:45 42.69369 10.70383 27628 ft 423 kts 127°
2026-05-06 10:45 42.67809 10.73803 27155 ft 426 kts 127°
2026-05-06 10:45 42.66251 10.77219 26654 ft 424 kts 127°
2026-05-06 10:46 42.64695 10.80608 26175 ft 421 kts 127°
2026-05-06 10:46 42.63149 10.83968 25697 ft 418 kts 126°
2026-05-06 10:46 42.61615 10.87306 25218 ft 415 kts 126°
2026-05-06 10:46 42.60094 10.90614 24755 ft 413 kts 126°
2026-05-06 10:47 42.58575 10.93911 24271 ft 410 kts 126°
2026-05-06 10:47 42.57065 10.97184 23826 ft 408 kts 126°
2026-05-06 10:47 42.55563 11.00435 23329 ft 405 kts 126°
2026-05-06 10:47 42.54075 11.03657 22849 ft 401 kts 126°
2026-05-06 10:48 42.52602 11.06842 22397 ft 396 kts 126°
2026-05-06 10:48 42.51141 11.09995 21967 ft 392 kts 126°
2026-05-06 10:48 42.49700 11.13103 21540 ft 387 kts 126°
2026-05-06 10:48 42.48271 11.16180 21091 ft 383 kts 126°
2026-05-06 10:49 42.46860 11.19224 20684 ft 381 kts 128°
2026-05-06 10:49 42.45455 11.22238 20249 ft 377 kts 128°
2026-05-06 10:49 42.44252 11.25380 19843 ft 379 kts 113°
2026-05-06 10:49 42.43676 11.28873 19442 ft 381 kts 103°
2026-05-06 10:50 42.43271 11.32420 19022 ft 382 kts 102°
2026-05-06 10:50 42.42893 11.35928 18606 ft 379 kts 102°
2026-05-06 10:50 42.42501 11.39482 18185 ft 375 kts 102°
2026-05-06 10:50 42.42111 11.42900 17762 ft 370 kts 102°
2026-05-06 10:51 42.41714 11.46375 17355 ft 368 kts 102°
2026-05-06 10:51 42.41332 11.49744 16956 ft 365 kts 102°
2026-05-06 10:51 42.40949 11.53056 16781 ft 346 kts 105°
2026-05-06 10:51 42.40156 11.56006 16673 ft 325 kts 126°
2026-05-06 10:52 42.38744 11.58330 16465 ft 318 kts 146°
2026-05-06 10:52 42.36881 11.59881 16215 ft 312 kts 165°
2026-05-06 10:52 42.34841 11.60872 15948 ft 311 kts 166°
2026-05-06 10:52 42.32823 11.61814 15677 ft 303 kts 167°
2026-05-06 10:53 42.30851 11.62720 15397 ft 295 kts 167°
2026-05-06 10:53 42.28947 11.63608 15127 ft 284 kts 167°
2026-05-06 10:53 42.27094 11.64473 14894 ft 280 kts 167°
2026-05-06 10:53 42.25250 11.65259 14664 ft 276 kts 171°
2026-05-06 10:54 42.23402 11.66047 14429 ft 279 kts 167°
2026-05-06 10:54 42.21585 11.66882 14196 ft 279 kts 167°
2026-05-06 10:54 42.19739 11.67686 13960 ft 278 kts 168°
2026-05-06 10:54 42.17898 11.68465 13715 ft 278 kts 168°
2026-05-06 10:55 42.16060 11.69251 13466 ft 277 kts 168°
2026-05-06 10:55 42.14228 11.70042 13224 ft 276 kts 168°
2026-05-06 10:55 42.12404 11.70828 12989 ft 274 kts 168°
2026-05-06 10:55 42.10586 11.71608 12750 ft 274 kts 168°
2026-05-06 10:56 42.08793 11.72439 12510 ft 272 kts 159°
2026-05-06 10:56 42.07286 11.74010 12283 ft 277 kts 137°
2026-05-06 10:56 42.06304 11.76278 12059 ft 286 kts 112°
2026-05-06 10:56 42.06046 11.78936 11836 ft 291 kts 86°
2026-05-06 10:57 42.06527 11.81582 11599 ft 291 kts 72°
2026-05-06 10:57 42.07181 11.84164 11327 ft 291 kts 64°
2026-05-06 10:57 42.08431 11.86241 11111 ft 286 kts 35°
2026-05-06 10:57 42.10181 11.87375 10873 ft 277 kts
2026-05-06 10:58 42.12048 11.87416 10638 ft 265 kts 341°
2026-05-06 10:58 42.13804 11.86733 10419 ft 262 kts 336°
2026-05-06 10:58 42.15534 11.85985 10196 ft 260 kts 335°
2026-05-06 10:58 42.17253 11.85230 9966 ft 259 kts 335°
2026-05-06 10:59 42.18972 11.84494 9743 ft 258 kts 335°
2026-05-06 10:59 42.20681 11.83766 9510 ft 258 kts 336°
2026-05-06 10:59 42.22385 11.83036 9270 ft 257 kts 336°
2026-05-06 10:59 42.24091 11.82305 9062 ft 257 kts 336°
2026-05-06 11:00 42.25791 11.81574 8833 ft 256 kts 336°
2026-05-06 11:00 42.27487 11.80847 8633 ft 256 kts 336°
2026-05-06 11:00 42.29206 11.80223 8396 ft 260 kts 351°
2026-05-06 11:00 42.31024 11.80617 8181 ft 270 kts 19°
2026-05-06 11:01 42.32554 11.82102 7993 ft 275 kts 49°
2026-05-06 11:01 42.33427 11.84365 7767 ft 271 kts 75°
2026-05-06 11:01 42.33983 11.86768 7555 ft 272 kts 73°
2026-05-06 11:01 42.34559 11.89173 7317 ft 263 kts 77°
2026-05-06 11:02 42.34635 11.91543 7063 ft 248 kts 108°
2026-05-06 11:02 42.33963 11.93621 6857 ft 239 kts 135°
2026-05-06 11:02 42.32736 11.95038 6662 ft 227 kts 159°
2026-05-06 11:02 42.31275 11.95729 6481 ft 221 kts 167°
2026-05-06 11:03 42.29812 11.96369 6298 ft 220 kts 168°
2026-05-06 11:03 42.28353 11.96986 6095 ft 218 kts 167°
2026-05-06 11:03 42.26904 11.97603 5908 ft 217 kts 167°
2026-05-06 11:03 42.25474 11.98212 5721 ft 215 kts 167°
2026-05-06 11:04 42.24052 11.98819 5539 ft 214 kts 167°
2026-05-06 11:04 42.22638 11.99422 5358 ft 212 kts 166°
2026-05-06 11:04 42.21232 12.00020 5180 ft 209 kts 166°
2026-05-06 11:04 42.19852 12.00606 5008 ft 209 kts 166°
2026-05-06 11:05 42.18463 12.01196 4820 ft 209 kts 165°
2026-05-06 11:05 42.17110 12.01778 4621 ft 205 kts 166°
2026-05-06 11:05 42.15750 12.02358 4451 ft 205 kts 166°
2026-05-06 11:05 42.14391 12.02937 4285 ft 206 kts 165°
2026-05-06 11:06 42.13014 12.03522 4090 ft 206 kts 165°
2026-05-06 11:06 42.11722 12.04274 3934 ft 201 kts 148°
2026-05-06 11:06 42.10793 12.05553 3793 ft 181 kts 137°
2026-05-06 11:06 42.09954 12.06785 3631 ft 177 kts 139°
2026-05-06 11:07 42.09128 12.07992 3501 ft 173 kts 139°
2026-05-06 11:07 42.08314 12.09180 3349 ft 172 kts 139°
2026-05-06 11:07 42.07504 12.10360 3181 ft 171 kts 139°
2026-05-06 11:07 42.06704 12.11532 3042 ft 170 kts 138°
2026-05-06 11:08 42.05909 12.12696 2958 ft 167 kts 138°
2026-05-06 11:08 42.05122 12.13846 2966 ft 169 kts 138°
2026-05-06 11:08 42.04319 12.15020 2975 ft 170 kts 138°
2026-05-06 11:08 42.03518 12.16195 2981 ft 171 kts 138°
2026-05-06 11:09 42.02716 12.17370 2985 ft 171 kts 138°
2026-05-06 11:09 42.01910 12.18542 2992 ft 167 kts 139°
2026-05-06 11:09 42.00955 12.19316 2855 ft 160 kts 164°
2026-05-06 11:09 41.99910 12.19719 2766 ft 155 kts 165°
2026-05-06 11:10 41.98877 12.20150 2667 ft 155 kts 165°
2026-05-06 11:10 41.97852 12.20582 2557 ft 154 kts 165°
2026-05-06 11:10 41.96843 12.21012 2476 ft 150 kts 165°
2026-05-06 11:10 41.95819 12.21431 2300 ft 161 kts 165°
2026-05-06 11:11 41.94772 12.21867 2083 ft 151 kts 164°
2026-05-06 11:11 41.93814 12.22273 1870 ft 140 kts 163°
2026-05-06 11:11 41.92901 12.22661 1696 ft 140 kts 164°
2026-05-06 11:11 41.91962 12.23055 1505 ft 142 kts 164°
2026-05-06 11:12 41.91014 12.23453 1326 ft 143 kts 164°
2026-05-06 11:12 41.90053 12.23857 1124 ft 146 kts 164°
2026-05-06 11:12 41.89075 12.24267 981 ft 148 kts 165°
2026-05-06 11:12 41.88071 12.24682 784 ft 155 kts 162°
2026-05-06 11:13 41.87059 12.25123 577 ft 150 kts 162°
2026-05-06 11:13 41.86122 12.25505 377 ft 137 kts 162°
2026-05-06 11:13 41.85174 12.25915 199 ft 144 kts 162°
2026-05-06 11:13 41.84234 12.26300 31 ft 134 kts 162°
2026-05-06 11:14 41.83516 12.26603 28 ft 75 kts 162°
2026-05-06 11:14 41.83185 12.26741 27 ft 40 kts 162°
2026-05-06 11:14 41.82939 12.26845 27 ft 35 kts 163°
2026-05-06 11:14 41.82726 12.26872 29 ft 28 kts 188°
2026-05-06 11:15 41.82595 12.26836 28 ft 18 kts 193°
2026-05-06 11:15 41.82471 12.26798 23 ft 18 kts 193°
2026-05-06 11:15 41.82342 12.26782 21 ft 19 kts 175°
2026-05-06 11:15 41.82201 12.26831 19 ft 25 kts 163°
2026-05-06 11:16 41.82015 12.26906 21 ft 30 kts 163°
2026-05-06 11:16 41.81796 12.26933 26 ft 34 kts 196°
2026-05-06 11:16 41.81563 12.26962 29 ft 37 kts 162°
2026-05-06 11:16 41.81308 12.27069 25 ft 36 kts 162°
2026-05-06 11:17 41.81233 12.27100 25 ft 0 kts 162°
2026-05-06 11:17 41.81211 12.27109 26 ft 8 kts 162°
2026-05-06 11:17 41.81133 12.27141 23 ft 16 kts 162°
2026-05-06 11:17 41.81000 12.27197 18 ft 24 kts 163°
2026-05-06 11:18 41.80815 12.27191 17 ft 28 kts 211°
2026-05-06 11:18 41.80730 12.26979 16 ft 27 kts 250°
2026-05-06 11:18 41.80652 12.26700 19 ft 37 kts 249°
2026-05-06 11:18 41.80547 12.26335 22 ft 42 kts 251°
2026-05-06 11:19 41.80397 12.26144 20 ft 27 kts 206°
2026-05-06 11:19 41.80298 12.25930 19 ft 37 kts 250°
2026-05-06 11:19 41.80211 12.25614 25 ft 35 kts 250°
2026-05-06 11:19 41.80104 12.25360 29 ft 28 kts 208°
2026-05-06 11:20 41.80010 12.25385 25 ft 13 kts 117°
2026-05-06 11:20 41.79944 12.25471 26 ft 1 kts 200°
2026-05-06 11:20 41.79918 12.25407 26 ft 10 kts 262°
2026-05-06 11:20 41.79914 12.25383 27 ft 0 kts 258°